Find Starlink 35202

NORAD ID: 65647 Int'l Des: 2025-210 Owner: SPXS Country: US Constellation: starlink operational
LEOCIRCULAR

Live Position

Loading 3D Globe...

About Starlink 35202

Description loading...

Upcoming Passes

Passes for default location (London). Set your location on the main map for personalized predictions.

Altitude History

Loading altitude history...

Two-Line Element Set

1 65647U 25210AB 26106.80048676 .00007982 00000-0 28130-3 0 9995
2 65647 53.1581 130.2196 0001093 86.5722 273.5404 15.30203213 33560
Epoch: Apr 16, 2026 • Age: 12 hours

Current Status

Altitude 493.5 km
Velocity 7.62 km/s
Sub-Earth Point -50.91°S, 59.51°E
Launch Date Sep 18, 2025
Age 0.5 years
Type internet

Technical Details

Classification Payload
Mass 575.00 kg
Dry Mass 530.00 kg
Total Mass 575.00 kg
Length 0.30 m
Diameter 4.10 m
Span 29.00 m
Shape Box + pan
Manufacturer SPXS
Bus Type Starlink V2MO
Phase Status In Orbit
Owner/State SPXS/US

Most Searched